| time (UTC) | temp F | wind direction | speed knots | gust knots | rain 1hr in | rain 24hr in | rain mn in | humidity % | barometer mb |
| 20260504160407 | 53 | 231 | 0.9 | 13.0 | 0.00 | 0.00 | 0.00 | 91 | 1014.2 |
| 20260504150643 | 52 | 226 | 0.0 | 8.7 | 0.00 | 0.00 | 0.00 | 92 | 1014.1 |
| 20260504150130 | 52 | 183 | 0.9 | 8.7 | 0.00 | 0.00 | 0.00 | 92 | 1014.1 |
| 20260504140920 | 51 | 200 | 2.6 | 8.7 | 0.00 | 0.00 | 0.00 | 91 | 1013.7 |
| 20260504140408 | 51 | 281 | 0.0 | 4.3 | 0.00 | 0.00 | 0.00 | 91 | 1013.6 |
| 20260504130644 | 51 | 0 | 0.0 | 7.0 | 0.00 | 0.00 | 0.00 | 91 | 1013.1 |
| 20260504130131 | 51 | 0 | 0.0 | 7.0 | 0.00 | 0.00 | 0.00 | 91 | 1013.0 |
| 20260504110646 | 51 | 207 | 2.6 | 8.7 | 0.00 | 0.00 | 0.00 | 92 | 1012.9 |
| 20260504100409 | 51 | 161 | 0.0 | 6.1 | 0.00 | 0.00 | 0.00 | 92 | 1012.9 |
| 20260504090133 | 51 | 0 | 0.0 | 7.0 | 0.00 | 0.00 | 0.00 | 92 | 1012.7 |
| 20260504081949 | 51 | 298 | 0.9 | 6.1 | 0.00 | 0.00 | 0.00 | 92 | 1012.7 |
| 20260504081436 | 51 | 254 | 1.7 | 5.2 | 0.00 | 0.00 | 0.00 | 92 | 1012.7 |
| 20260504080923 | 51 | 225 | 0.0 | 7.0 | 0.00 | 0.00 | 0.00 | 93 | 1012.7 |
| 20260504080410 | 51 | 145 | 1.7 | 7.0 | 0.00 | 0.00 | 0.00 | 92 | 1012.6 |
| 20260504070134 | 52 | 196 | 0.0 | 8.7 | 0.00 | 0.00 | 0.00 | 92 | 1012.3 |
| 20260504050648 | 51 | 179 | 0.0 | 10.4 | 0.00 | 0.00 | 0.00 | 93 | 1011.9 |
| 20260504050135 | 51 | 271 | 0.0 | 10.4 | 0.00 | 0.00 | 0.00 | 93 | 1011.8 |
| 20260504045621 | 51 | 256 | 0.0 | 10.4 | 0.00 | 0.00 | 0.00 | 93 | 1011.9 |
| 20260504045109 | 51 | 235 | 2.6 | 9.6 | 0.00 | 0.00 | 0.00 | 93 | 1011.9 |
| 20260504044556 | 51 | 231 | 1.7 | 8.7 | 0.00 | 0.00 | 0.00 | 93 | 1011.8 |
| 20260504044042 | 51 | 256 | 1.7 | 14.8 | 0.00 | 0.00 | 0.00 | 93 | 1011.8 |
| 20260504043529 | 51 | 264 | 5.2 | 14.8 | 0.00 | 0.00 | 0.00 | 93 | 1011.7 |
| 20260504043016 | 51 | 250 | 0.9 | 14.8 | 0.00 | 0.00 | 0.00 | 93 | 1011.7 |
| 20260504042503 | 52 | 226 | 0.9 | 13.0 | 0.00 | 0.00 | 0.00 | 93 | 1011.7 |
| 20260504041951 | 52 | 261 | 3.5 | 13.0 | 0.00 | 0.00 | 0.00 | 92 | 1011.5 |
| 20260504041437 | 52 | 198 | 0.0 | 11.3 | 0.00 | 0.00 | 0.00 | 92 | 1011.5 |
| 20260504040924 | 52 | 266 | 0.9 | 11.3 | 0.00 | 0.00 | 0.00 | 92 | 1011.4 |
| 20260504040411 | 52 | 242 | 4.3 | 11.3 | 0.00 | 0.00 | 0.00 | 92 | 1011.3 |
| 20260504035858 | 52 | 263 | 4.3 | 9.6 | 0.00 | 0.00 | 0.00 | 92 | 1011.3 |
| 20260504035345 | 52 | 0 | 4.3 | 14.8 | 0.00 | 0.00 | 0.00 | 92 | 1011.1 |
| 20260504034833 | 51 | 246 | 4.3 | 14.8 | 0.00 | 0.00 | 0.00 | 92 | 1011.0 |
| 20260504034319 | 51 | 0 | 0.9 | 14.8 | 0.00 | 0.00 | 0.00 | 92 | 1011.1 |
| 20260504033806 | 51 | 0 | 1.7 | 12.2 | 0.00 | 0.00 | 0.00 | 92 | 1010.9 |
| 20260504033253 | 51 | 239 | 3.5 | 12.2 | 0.00 | 0.00 | 0.00 | 92 | 1010.8 |
| 20260504032740 | 51 | 214 | 3.5 | 11.3 | 0.00 | 0.00 | 0.00 | 92 | 1010.7 |
| 20260504032228 | 51 | 288 | 1.7 | 11.3 | 0.00 | 0.00 | 0.00 | 92 | 1010.5 |
| 20260504031715 | 51 | 273 | 3.5 | 11.3 | 0.00 | 0.00 | 0.00 | 92 | 1010.6 |
| 20260504031201 | 51 | 257 | 1.7 | 13.0 | 0.00 | 0.00 | 0.00 | 92 | 1010.6 |
| 20260504030649 | 51 | 270 | 4.3 | 13.0 | 0.00 | 0.00 | 0.00 | 92 | 1010.5 |
| 20260504030135 | 51 | 260 | 6.1 | 13.0 | 0.00 | 0.00 | 0.00 | 92 | 1010.6 |
| 20260504025626 | 51 | 278 | 0.9 | 12.2 | 0.00 | 0.00 | 0.00 | 92 | 1010.5 |
| 20260504025109 | 51 | 284 | 5.2 | 12.2 | 0.00 | 0.00 | 0.00 | 92 | 1010.4 |
| 20260504024557 | 51 | 302 | 2.6 | 11.3 | 0.00 | 0.00 | 0.00 | 92 | 1010.5 |
| 20260504024043 | 51 | 302 | 4.3 | 11.3 | 0.00 | 0.00 | 0.00 | 92 | 1010.4 |
| 20260504023531 | 51 | 263 | 1.7 | 11.3 | 0.00 | 0.00 | 0.00 | 92 | 1010.4 |
| 20260504023017 | 51 | 245 | 6.1 | 9.6 | 0.00 | 0.00 | 0.00 | 92 | 1010.4 |
| 20260504022504 | 51 | 256 | 2.6 | 11.3 | 0.00 | 0.00 | 0.00 | 92 | 1010.3 |
| 20260504021951 | 51 | 270 | 4.3 | 11.3 | 0.00 | 0.00 | 0.00 | 91 | 1010.1 |
| 20260504021438 | 51 | 186 | 3.5 | 11.3 | 0.00 | 0.00 | 0.00 | 91 | 1010.1 |
| 20260504020412 | 51 | 267 | 6.1 | 9.6 | 0.00 | 0.00 | 0.00 | 91 | 1010.1 |
| 20260504015859 | 52 | 242 | 5.2 | 12.2 | 0.00 | 0.00 | 0.00 | 91 | 1010.0 |
| 20260504015346 | 52 | 270 | 4.3 | 12.2 | 0.00 | 0.00 | 0.00 | 91 | 1009.9 |
| 20260504014833 | 52 | 280 | 6.1 | 12.2 | 0.00 | 0.00 | 0.00 | 91 | 1009.8 |
| 20260504014320 | 52 | 275 | 6.1 | 9.6 | 0.00 | 0.00 | 0.00 | 91 | 1009.8 |
| 20260504013807 | 52 | 249 | 0.9 | 3.5 | 0.00 | 0.00 | 0.00 | 91 | 1009.7 |
| 20260504013254 | 52 | 211 | 2.6 | 11.3 | 0.00 | 0.00 | 0.00 | 91 | 1009.8 |
| 20260504012741 | 52 | 273 | 3.5 | 11.3 | 0.00 | 0.00 | 0.00 | 91 | 1009.7 |
| 20260504012228 | 51 | 252 | 3.5 | 11.3 | 0.00 | 0.00 | 0.00 | 91 | 1009.7 |
| 20260504011715 | 51 | 252 | 0.0 | 7.0 | 0.00 | 0.00 | 0.00 | 91 | 1009.6 |
| 20260504010136 | 52 | 267 | 6.1 | 13.9 | 0.00 | 0.00 | 0.00 | 90 | 1009.9 |
| 20260504005110 | 52 | 277 | 2.6 | 7.0 | 0.00 | 0.00 | 0.00 | 90 | 1010.0 |
| 20260504004558 | 52 | 263 | 2.6 | 9.6 | 0.00 | 0.00 | 0.00 | 90 | 1009.9 |
| 20260504004044 | 52 | 319 | 0.9 | 9.6 | 0.00 | 0.00 | 0.00 | 90 | 1009.9 |
| 20260504003531 | 52 | 288 | 2.6 | 9.6 | 0.00 | 0.00 | 0.00 | 90 | 1010.0 |
| 20260504003018 | 52 | 246 | 5.2 | 7.8 | 0.00 | 0.00 | 0.00 | 89 | 1009.9 |
| 20260504001952 | 52 | 291 | 1.7 | 9.6 | 0.00 | 0.00 | 0.00 | 89 | 1009.7 |
| 20260504001439 | 52 | 305 | 2.6 | 9.6 | 0.00 | 0.00 | 0.00 | 89 | 1009.7 |
| 20260504000413 | 53 | 330 | 1.7 | 9.6 | 0.00 | 0.00 | 0.00 | 89 | 1009.6 |
| 20260503235900 | 53 | 228 | 3.5 | 9.6 | 0.00 | 0.00 | 0.00 | 88 | 1009.6 |
| 20260503235347 | 53 | 324 | 3.5 | 9.6 | 0.00 | 0.00 | 0.00 | 88 | 1009.6 |
| 20260503234834 | 53 | 282 | 2.6 | 8.7 | 0.00 | 0.00 | 0.00 | 88 | 1009.6 |
| 20260503234321 | 53 | 247 | 4.3 | 8.7 | 0.00 | 0.00 | 0.00 | 88 | 1009.6 |
| 20260503233808 | 53 | 242 | 4.3 | 6.1 | 0.00 | 0.00 | 0.00 | 88 | 1009.6 |
| 20260503233255 | 53 | 291 | 4.3 | 9.6 | 0.00 | 0.00 | 0.00 | 88 | 1009.6 |
| 20260503232742 | 53 | 274 | 4.3 | 9.6 | 0.00 | 0.00 | 0.00 | 88 | 1009.5 |
| 20260503232229 | 53 | 277 | 5.2 | 9.6 | 0.00 | 0.00 | 0.00 | 88 | 1009.4 |
| 20260503231716 | 54 | 253 | 5.2 | 8.7 | 0.00 | 0.00 | 0.00 | 87 | 1009.4 |
| 20260503231203 | 54 | 264 | 4.3 | 7.8 | 0.00 | 0.00 | 0.00 | 87 | 1009.5 |
| 20260503230650 | 53 | 235 | 5.2 | 10.4 | 0.00 | 0.00 | 0.00 | 88 | 1009.6 |
| 20260503225624 | 54 | 273 | 4.3 | 10.4 | 0.00 | 0.00 | 0.00 | 87 | 1009.7 |
| 20260503225111 | 54 | 242 | 5.2 | 9.6 | 0.00 | 0.00 | 0.00 | 87 | 1009.8 |
| 20260503224558 | 54 | 292 | 5.2 | 9.6 | 0.00 | 0.00 | 0.00 | 87 | 1009.8 |
| 20260503224045 | 54 | 327 | 4.3 | 9.6 | 0.00 | 0.00 | 0.00 | 87 | 1009.7 |
| 20260503223534 | 54 | 266 | 4.3 | 9.6 | 0.00 | 0.00 | 0.00 | 87 | 1009.9 |
| 20260503223019 | 54 | 249 | 4.3 | 8.7 | 0.00 | 0.00 | 0.00 | 87 | 1010.0 |
| 20260503221953 | 54 | 267 | 5.2 | 8.7 | 0.00 | 0.00 | 0.00 | 86 | 1010.0 |
| 20260503221440 | 55 | 267 | 4.3 | 8.7 | 0.00 | 0.00 | 0.00 | 86 | 1010.1 |
| 20260503220927 | 55 | 281 | 4.3 | 8.7 | 0.00 | 0.00 | 0.00 | 86 | 1010.1 |
| 20260503220414 | 55 | 266 | 5.2 | 7.0 | 0.00 | 0.00 | 0.00 | 86 | 1010.2 |
| 20260503215901 | 55 | 305 | 4.3 | 7.0 | 0.00 | 0.00 | 0.00 | 86 | 1010.2 |
| 20260503215348 | 55 | 270 | 4.3 | 7.8 | 0.00 | 0.00 | 0.00 | 86 | 1010.2 |
| 20260503214835 | 55 | 292 | 3.5 | 7.8 | 0.00 | 0.00 | 0.00 | 87 | 1010.2 |
| 20260503213809 | 56 | 299 | 4.3 | 6.1 | 0.00 | 0.00 | 0.00 | 86 | 1010.2 |
| 20260503213256 | 55 | 299 | 2.6 | 5.2 | 0.00 | 0.00 | 0.00 | 87 | 1010.2 |
| 20260503212743 | 55 | 301 | 2.6 | 6.1 | 0.00 | 0.00 | 0.00 | 87 | 1010.3 |
| 20260503212230 | 55 | 317 | 5.2 | 6.1 | 0.00 | 0.00 | 0.00 | 87 | 1010.3 |
| 20260503211717 | 55 | 310 | 4.3 | 6.1 | 0.00 | 0.00 | 0.00 | 87 | 1010.4 |
| 20260503211204 | 55 | 315 | 4.3 | 7.8 | 0.00 | 0.00 | 0.00 | 87 | 1010.4 |
| 20260503210651 | 55 | 298 | 4.3 | 7.8 | 0.00 | 0.00 | 0.00 | 87 | 1010.4 |
| 20260503210138 | 55 | 292 | 5.2 | 7.8 | 0.00 | 0.00 | 0.00 | 87 | 1010.4 |
| 20260503205112 | 55 | 289 | 5.2 | 6.1 | 0.00 | 0.00 | 0.00 | 87 | 1010.4 |
| 20260503204559 | 56 | 310 | 4.3 | 5.2 | 0.00 | 0.00 | 0.00 | 87 | 1010.3 |
| 20260503204047 | 57 | 329 | 3.5 | 5.2 | 0.00 | 0.00 | 0.00 | 87 | 1010.4 |
| 20260503203533 | 57 | 296 | 4.3 | 5.2 | 0.00 | 0.00 | 0.00 | 87 | 1010.4 |
| 20260503203020 | 57 | 0 | 0.0 | 0.0 | 0.00 | 0.00 | 0.00 | 88 | 1010.4 |
| 20260503202507 | 57 | 0 | 0.0 | 0.0 | 0.00 | 0.00 | 0.00 | 88 | 1010.4 |
| 20260503201954 | 56 | 0 | 0.0 | 2.6 | 0.00 | 0.00 | 0.00 | 89 | 1010.4 |
| 20260503201441 | 56 | 0 | 0.0 | 2.6 | 0.00 | 0.00 | 0.00 | 89 | 1010.4 |
| 20260503200928 | 55 | 0 | 0.0 | 2.6 | 0.00 | 0.00 | 0.00 | 90 | 1010.4 |
| 20260503200415 | 54 | 295 | 1.7 | 2.6 | 0.00 | 0.00 | 0.00 | 90 | 1010.4 |
| 20260503195902 | 54 | 268 | 1.7 | 5.2 | 0.00 | 0.00 | 0.00 | 90 | 1010.5 |
| 20260503195349 | 54 | 319 | 4.3 | 5.2 | 0.00 | 0.00 | 0.00 | 90 | 1010.6 |
| 20260503194836 | 53 | 305 | 2.6 | 5.2 | 0.00 | 0.00 | 0.00 | 90 | 1010.6 |
| 20260503194324 | 53 | 312 | 4.3 | 5.2 | 0.00 | 0.00 | 0.00 | 90 | 1010.6 |
| 20260503193810 | 53 | 0 | 0.0 | 5.2 | 0.00 | 0.00 | 0.00 | 90 | 1010.6 |
| 20260503193257 | 53 | 312 | 3.5 | 5.2 | 0.00 | 0.00 | 0.00 | 90 | 1010.6 |
| 20260503192231 | 54 | 305 | 4.3 | 7.0 | 0.00 | 0.00 | 0.00 | 90 | 1010.8 |
| 20260503191718 | 54 | 306 | 5.2 | 7.0 | 0.00 | 0.00 | 0.00 | 90 | 1010.9 |
| 20260503191205 | 55 | 306 | 4.3 | 7.0 | 0.00 | 0.00 | 0.00 | 90 | 1010.9 |
| 20260503190652 | 55 | 315 | 3.5 | 7.0 | 0.00 | 0.00 | 0.00 | 89 | 1011.0 |
| 20260503190139 | 56 | 303 | 3.5 | 4.3 | 0.00 | 0.00 | 0.00 | 90 | 1010.9 |
| 20260503185626 | 56 | 313 | 1.7 | 4.3 | 0.00 | 0.00 | 0.00 | 91 | 1011.0 |
| 20260503184600 | 55 | 0 | 0.0 | 5.2 | 0.00 | 0.00 | 0.00 | 91 | 1010.9 |
| 20260503184047 | 54 | 308 | 1.7 | 5.2 | 0.00 | 0.00 | 0.00 | 91 | 1011.0 |
| 20260503183534 | 54 | 285 | 1.7 | 5.2 | 0.00 | 0.00 | 0.00 | 91 | 1011.0 |
| 20260503183021 | 53 | 298 | 3.5 | 7.0 | 0.00 | 0.00 | 0.00 | 91 | 1011.0 |
| 20260503181442 | 54 | 298 | 3.5 | 6.1 | 0.00 | 0.00 | 0.00 | 92 | 1011.0 |
| 20260503180929 | 54 | 301 | 3.5 | 5.2 | 0.00 | 0.00 | 0.00 | 92 | 1010.9 |
| 20260503180416 | 54 | 303 | 3.5 | 5.2 | 0.00 | 0.00 | 0.00 | 92 | 1010.9 |
| 20260503175903 | 53 | 281 | 1.7 | 6.1 | 0.00 | 0.00 | 0.00 | 92 | 1010.9 |
| 20260503175350 | 53 | 306 | 1.7 | 6.1 | 0.00 | 0.00 | 0.00 | 92 | 1011.0 |
| 20260503174837 | 53 | 280 | 2.6 | 6.1 | 0.00 | 0.00 | 0.00 | 92 | 1010.9 |
| 20260503174324 | 53 | 287 | 2.6 | 6.1 | 0.00 | 0.00 | 0.00 | 92 | 1011.0 |
| 20260503173811 | 53 | 261 | 3.5 | 6.1 | 0.00 | 0.00 | 0.00 | 92 | 1011.0 |
| 20260503173258 | 53 | 306 | 0.9 | 6.1 | 0.00 | 0.00 | 0.00 | 92 | 1011.1 |
| 20260503172232 | 53 | 285 | 1.7 | 5.2 | 0.00 | 0.00 | 0.00 | 93 | 1011.0 |
| 20260503171719 | 52 | 284 | 2.6 | 5.2 | 0.00 | 0.00 | 0.00 | 92 | 1011.0 |
| 20260503170653 | 52 | 302 | 2.6 | 6.1 | 0.00 | 0.00 | 0.00 | 93 | 1011.0 |